UKV7371 RJGG-UAAA

Flight info

Callsign UKV7371
Flight time 6h 41m
Altitude 38000
Route YME Y18 MIHOU Y38 SAPRA G585 SEL G597 ANSIM/K0902S1160 DCT DOVIV/K0902S1220 W55 PAMRU W34 LADIX DCT BIKUT W69 DKO W66 NUKTI DCT KABDO DCT GOBOK A343 RULAD/K0900F400 M610 PIGAL PIGAL4C
Aircraft A359/H-SDE2E3GHIJ3J4J5LM1ORWXY/LB1D1

Departure

Time 2026-04-26 09:02
Airport Chubu Centrair International Airport (RJGG)

Arrival

Time 2026-04-26 15:43
Airport Almaty International Airport (UAAA)
Time Latitude Longitude Altitude Speed Heading
2026-04-26 07:46 34.85774 136.81093 34 ft 0 kts 349°
2026-04-26 08:45 34.85767 136.81094 34 ft 4 kts 347°
2026-04-26 08:45 34.85741 136.81103 32 ft 4 kts 340°
2026-04-26 08:45 34.85716 136.81116 33 ft 4 kts 329°
2026-04-26 08:45 34.85695 136.81135 32 ft 4 kts 310°
2026-04-26 08:46 34.85683 136.81161 33 ft 4 kts 266°
2026-04-26 08:46 34.85684 136.81173 34 ft 0 kts 259°
2026-04-26 08:53 34.85682 136.81156 34 ft 6 kts 259°
2026-04-26 08:53 34.85673 136.81097 34 ft 8 kts 259°
2026-04-26 08:54 34.85661 136.81019 34 ft 10 kts 257°
2026-04-26 08:54 34.85683 136.80941 34 ft 11 kts 323°
2026-04-26 08:54 34.85756 136.80912 34 ft 12 kts 347°
2026-04-26 08:54 34.85847 136.80891 34 ft 14 kts 349°
2026-04-26 08:55 34.85968 136.80862 34 ft 22 kts 349°
2026-04-26 08:55 34.86126 136.80824 34 ft 24 kts 349°
2026-04-26 08:55 34.86292 136.80788 34 ft 25 kts 349°
2026-04-26 08:55 34.86464 136.80746 34 ft 26 kts 349°
2026-04-26 08:56 34.86642 136.80702 34 ft 27 kts 347°
2026-04-26 08:56 34.86764 136.80671 34 ft 27 kts 348°
2026-04-26 08:56 34.87017 136.80613 34 ft 28 kts 348°
2026-04-26 08:56 34.87211 136.80565 34 ft 29 kts 348°
2026-04-26 08:57 34.87315 136.80540 34 ft 17 kts 349°
2026-04-26 08:57 34.87412 136.80497 34 ft 9 kts 302°
2026-04-26 08:57 34.87414 136.80414 34 ft 11 kts 262°
2026-04-26 08:57 34.87400 136.80322 33 ft 1 kts 259°
2026-04-26 08:58 34.87400 136.80323 33 ft 0 kts 259°
2026-04-26 09:00 34.87396 136.80297 33 ft 9 kts 259°
2026-04-26 09:00 34.87384 136.80211 33 ft 9 kts 260°
2026-04-26 09:01 34.87344 136.80181 33 ft 7 kts 182°
2026-04-26 09:01 34.87296 136.80188 33 ft 0 kts 168°
2026-04-26 09:01 34.87048 136.80247 33 ft 71 kts 169°
2026-04-26 09:02 34.86361 136.80413 33 ft 129 kts 169°
2026-04-26 09:02 34.85702 136.80574 36 ft 162 kts 169°
2026-04-26 09:02 34.84284 136.80839 992 ft 149 kts 173°
2026-04-26 09:02 34.83587 136.80939 1301 ft 159 kts 172°
2026-04-26 09:03 34.82016 136.81161 1577 ft 188 kts 173°
2026-04-26 09:03 34.80644 136.81343 1761 ft 209 kts 173°
2026-04-26 09:03 34.79638 136.81479 1901 ft 222 kts 172°
2026-04-26 09:03 34.77485 136.81778 2313 ft 245 kts 172°
2026-04-26 09:04 34.76329 136.81934 2655 ft 249 kts 172°
2026-04-26 09:04 34.74593 136.82158 3188 ft 254 kts 171°
2026-04-26 09:04 34.72827 136.82100 3711 ft 263 kts 189°
2026-04-26 09:04 34.71152 136.81194 4304 ft 269 kts 215°
2026-04-26 09:05 34.69941 136.79449 4940 ft 273 kts 242°
2026-04-26 09:05 34.69471 136.77217 5542 ft 278 kts 268°
2026-04-26 09:05 34.69862 136.74923 6137 ft 280 kts 295°
2026-04-26 09:05 34.71038 136.73059 6756 ft 280 kts 320°
2026-04-26 09:06 34.72468 136.71430 7295 ft 284 kts 310°
2026-04-26 09:06 34.73704 136.69553 7852 ft 286 kts 308°
2026-04-26 09:06 34.75016 136.67720 8398 ft 289 kts 316°
2026-04-26 09:06 34.76707 136.66403 8911 ft 292 kts 340°
2026-04-26 09:07 34.78714 136.66083 9431 ft 295 kts
2026-04-26 09:07 34.80650 136.66866 9920 ft 297 kts 33°
2026-04-26 09:07 34.82138 136.68612 10256 ft 305 kts 58°
2026-04-26 09:07 34.82855 136.71069 10439 ft 316 kts 85°
2026-04-26 09:08 34.83217 136.73759 10604 ft 332 kts 73°
2026-04-26 09:08 34.84315 136.76464 10820 ft 347 kts 57°
2026-04-26 09:08 34.85799 136.78601 10988 ft 360 kts 44°
2026-04-26 09:08 34.87825 136.80460 11181 ft 372 kts 30°
2026-04-26 09:09 34.90230 136.81736 11381 ft 382 kts 15°
2026-04-26 09:09 34.92853 136.82286 11734 ft 385 kts
2026-04-26 09:09 34.95525 136.82066 12150 ft 385 kts 347°
2026-04-26 09:09 34.98070 136.81083 12569 ft 384 kts 333°
2026-04-26 09:10 35.00346 136.79393 12982 ft 383 kts 319°
2026-04-26 09:10 35.02214 136.77109 13388 ft 381 kts 305°
2026-04-26 09:10 35.03583 136.74366 13792 ft 378 kts 291°
2026-04-26 09:10 35.04387 136.71322 14216 ft 376 kts 278°
2026-04-26 09:11 35.04761 136.68167 14612 ft 377 kts 274°
2026-04-26 09:11 35.05048 136.64979 15026 ft 378 kts 274°
2026-04-26 09:11 35.05336 136.61778 15434 ft 381 kts 274°
2026-04-26 09:11 35.05602 136.58886 15836 ft 381 kts 274°
2026-04-26 09:12 35.05901 136.55662 16229 ft 383 kts 274°
2026-04-26 09:12 35.06198 136.52430 16642 ft 384 kts 274°
2026-04-26 09:12 35.06525 136.49184 17017 ft 387 kts 276°
2026-04-26 09:12 35.07208 136.45979 17399 ft 393 kts 288°
2026-04-26 09:13 35.08494 136.43011 17781 ft 400 kts 300°
2026-04-26 09:13 35.10119 136.40234 18117 ft 403 kts 303°
2026-04-26 09:13 35.11801 136.37482 18436 ft 406 kts 303°
2026-04-26 09:13 35.13493 136.34714 18801 ft 408 kts 302°
2026-04-26 09:14 35.15185 136.31931 19179 ft 409 kts 302°
2026-04-26 09:14 35.16878 136.29134 19546 ft 410 kts 302°
2026-04-26 09:14 35.18551 136.26364 19849 ft 412 kts 302°
2026-04-26 09:14 35.20256 136.23538 20196 ft 413 kts 302°
2026-04-26 09:15 35.21961 136.20701 20524 ft 414 kts 302°
2026-04-26 09:15 35.23500 136.17741 20796 ft 411 kts 292°
2026-04-26 09:15 35.24538 136.14521 21114 ft 407 kts 283°
2026-04-26 09:15 35.25355 136.11175 21412 ft 408 kts 282°
2026-04-26 09:16 35.26134 136.07853 21717 ft 408 kts 282°
2026-04-26 09:16 35.26920 136.04510 21974 ft 410 kts 282°
2026-04-26 09:16 35.27711 136.01151 22263 ft 411 kts 282°
2026-04-26 09:16 35.28507 135.97782 22515 ft 414 kts 282°
2026-04-26 09:17 35.29308 135.94392 22701 ft 417 kts 282°
2026-04-26 09:17 35.30118 135.90973 22978 ft 418 kts 282°
2026-04-26 09:17 35.30922 135.87550 23237 ft 419 kts 282°
2026-04-26 09:17 35.31731 135.84125 23559 ft 419 kts 282°
2026-04-26 09:18 35.32539 135.80690 23825 ft 421 kts 282°
2026-04-26 09:18 35.33350 135.77232 24033 ft 423 kts 282°
2026-04-26 09:18 35.34162 135.73774 24305 ft 423 kts 282°
2026-04-26 09:18 35.34975 135.70308 24622 ft 422 kts 281°
2026-04-26 09:19 35.35785 135.66848 24919 ft 423 kts 281°
2026-04-26 09:19 35.36592 135.63393 25181 ft 423 kts 281°
2026-04-26 09:19 35.37401 135.59930 25473 ft 422 kts 280°
2026-04-26 09:19 35.38205 135.56470 25722 ft 423 kts 280°
2026-04-26 09:20 35.39012 135.53001 25974 ft 423 kts 280°
2026-04-26 09:20 35.39817 135.49536 26250 ft 423 kts 279°
2026-04-26 09:20 35.40621 135.46070 26533 ft 423 kts 279°
2026-04-26 09:20 35.41421 135.42617 26780 ft 422 kts 279°
2026-04-26 09:21 35.42224 135.39146 26992 ft 423 kts 279°
2026-04-26 09:21 35.43026 135.35667 27212 ft 425 kts 279°
2026-04-26 09:21 35.43830 135.32170 27441 ft 426 kts 279°
2026-04-26 09:21 35.44639 135.28671 27764 ft 427 kts 278°
2026-04-26 09:22 35.45448 135.25176 28042 ft 426 kts 278°
2026-04-26 09:22 35.46251 135.21680 28249 ft 426 kts 278°
2026-04-26 09:22 35.47041 135.18222 28420 ft 428 kts 278°
2026-04-26 09:22 35.47767 135.14696 28633 ft 424 kts 274°
2026-04-26 09:23 35.48148 135.11148 28820 ft 418 kts 268°
2026-04-26 09:23 35.48338 135.07574 29013 ft 420 kts 267°
2026-04-26 09:23 35.48462 135.03997 29274 ft 420 kts 266°
2026-04-26 09:23 35.48560 135.00423 29582 ft 418 kts 266°
2026-04-26 09:24 35.48649 134.96859 29733 ft 419 kts 265°
2026-04-26 09:24 35.48732 134.93279 29899 ft 419 kts 265°
2026-04-26 09:24 35.48814 134.89703 29998 ft 421 kts 265°
2026-04-26 09:24 35.48912 134.86106 30152 ft 423 kts 266°
2026-04-26 09:25 35.49018 134.82493 30361 ft 424 kts 265°
2026-04-26 09:25 35.49126 134.78874 30593 ft 425 kts 265°
2026-04-26 09:25 35.49236 134.75244 30776 ft 426 kts 266°
2026-04-26 09:25 35.49346 134.71598 30976 ft 427 kts 265°
2026-04-26 09:26 35.49449 134.67955 31233 ft 428 kts 265°
2026-04-26 09:26 35.49555 134.64312 31509 ft 427 kts 265°
2026-04-26 09:26 35.49660 134.60678 31822 ft 425 kts 264°
2026-04-26 09:26 35.49765 134.57064 32159 ft 422 kts 264°
2026-04-26 09:27 35.49863 134.53478 32519 ft 419 kts 263°
2026-04-26 09:27 35.49956 134.49918 32874 ft 416 kts 263°
2026-04-26 09:27 35.50052 134.46385 33294 ft 411 kts 262°
2026-04-26 09:27 35.50148 134.42890 33692 ft 408 kts 262°
2026-04-26 09:28 35.50236 134.39428 34117 ft 404 kts 261°
2026-04-26 09:28 35.50323 134.35994 34440 ft 402 kts 261°
2026-04-26 09:28 35.50417 134.32586 34875 ft 396 kts 261°
2026-04-26 09:28 35.50506 134.29222 35220 ft 393 kts 261°
2026-04-26 09:29 35.50588 134.25876 35521 ft 392 kts 261°
2026-04-26 09:29 35.50670 134.22549 35844 ft 390 kts 261°
2026-04-26 09:29 35.50755 134.19233 36184 ft 387 kts 261°
2026-04-26 09:29 35.50833 134.15978 36446 ft 385 kts 260°
2026-04-26 09:30 35.50909 134.12690 36678 ft 386 kts 261°
2026-04-26 09:30 35.50992 134.09406 37031 ft 384 kts 260°
2026-04-26 09:30 35.51071 134.06168 37429 ft 377 kts 259°
2026-04-26 09:30 35.51150 134.02979 37748 ft 372 kts 260°
2026-04-26 09:31 35.51217 133.99817 37931 ft 371 kts 259°
2026-04-26 09:31 35.51337 133.93488 37961 ft 371 kts 259°
2026-04-26 09:32 35.51455 133.87171 37961 ft 371 kts 259°
2026-04-26 09:32 35.51599 133.80774 37959 ft 374 kts 259°
2026-04-26 09:33 35.51746 133.74396 37970 ft 375 kts 259°
2026-04-26 09:33 35.51887 133.68021 37963 ft 372 kts 259°
2026-04-26 09:34 35.51996 133.61666 37958 ft 374 kts 259°
2026-04-26 09:34 35.52143 133.55259 37962 ft 378 kts 260°
2026-04-26 09:35 35.52295 133.48817 37964 ft 377 kts 259°
2026-04-26 09:35 35.52450 133.42413 37959 ft 372 kts 259°
2026-04-26 09:36 35.52606 133.35998 37954 ft 379 kts 260°
2026-04-26 09:36 35.52736 133.29577 37962 ft 379 kts 259°
2026-04-26 09:37 35.52836 133.23096 37966 ft 379 kts 259°
2026-04-26 09:37 35.52968 133.16613 37960 ft 381 kts 259°
2026-04-26 09:38 35.53142 133.10093 37964 ft 386 kts 262°
2026-04-26 09:38 35.53839 133.03465 37951 ft 394 kts 265°
2026-04-26 09:39 35.54670 132.96808 37959 ft 395 kts 265°
2026-04-26 09:39 35.55521 132.90125 37941 ft 397 kts 265°
2026-04-26 09:40 35.56364 132.83414 37938 ft 398 kts 265°
2026-04-26 09:40 35.57198 132.76705 37934 ft 397 kts 265°
2026-04-26 09:41 35.58025 132.69979 37936 ft 399 kts 265°
2026-04-26 09:41 35.58877 132.63283 37929 ft 400 kts 265°
2026-04-26 09:42 35.59773 132.56516 37936 ft 402 kts 265°
2026-04-26 09:42 35.60688 132.49582 37930 ft 402 kts 265°
2026-04-26 09:43 35.61553 132.42946 37933 ft 402 kts 265°
2026-04-26 09:43 35.62431 132.36148 37936 ft 403 kts 265°
2026-04-26 09:44 35.63339 132.29081 37936 ft 403 kts 265°
2026-04-26 09:44 35.64177 132.22548 37933 ft 402 kts 265°
2026-04-26 09:45 35.65044 132.15761 37931 ft 402 kts 265°
2026-04-26 09:45 35.65904 132.08965 37931 ft 403 kts 264°
2026-04-26 09:46 35.66730 132.02417 37933 ft 404 kts 264°
2026-04-26 09:46 35.67450 131.96696 37936 ft 404 kts 265°
2026-04-26 09:47 35.68445 131.88758 37937 ft 404 kts 265°
2026-04-26 09:47 35.69298 131.81925 38016 ft 404 kts 265°
2026-04-26 09:47 35.69722 131.78512 38201 ft 403 kts 265°
2026-04-26 09:48 35.70145 131.75108 38388 ft 402 kts 264°
2026-04-26 09:48 35.70565 131.71703 38519 ft 403 kts 265°
2026-04-26 09:48 35.70984 131.68296 38623 ft 403 kts 265°
2026-04-26 09:48 35.71401 131.64890 38758 ft 403 kts 264°
2026-04-26 09:49 35.71818 131.61484 38895 ft 402 kts 265°
2026-04-26 09:49 35.72234 131.58074 39001 ft 403 kts 265°
2026-04-26 09:49 35.72649 131.54663 39095 ft 404 kts 265°
2026-04-26 09:50 35.73479 131.47808 39205 ft 406 kts 265°
2026-04-26 09:50 35.74315 131.40913 39330 ft 408 kts 265°
2026-04-26 09:51 35.75150 131.33977 39459 ft 411 kts 266°
2026-04-26 09:51 35.75976 131.27072 39598 ft 412 kts 266°
2026-04-26 09:52 35.76811 131.20078 39684 ft 415 kts 266°
2026-04-26 09:52 35.77646 131.13031 39845 ft 416 kts 267°
2026-04-26 09:52 35.78064 131.09503 39901 ft 417 kts 267°
2026-04-26 09:53 35.78897 131.02411 39906 ft 420 kts 268°
2026-04-26 09:53 35.79732 130.95278 39906 ft 422 kts 268°
2026-04-26 09:54 35.80567 130.88106 39899 ft 424 kts 268°
2026-04-26 09:54 35.81397 130.80944 39896 ft 425 kts 268°
2026-04-26 09:55 35.82231 130.73714 39888 ft 427 kts 268°
2026-04-26 09:55 35.83104 130.66465 39887 ft 429 kts 269°
2026-04-26 09:56 35.84049 130.59171 39888 ft 431 kts 270°
2026-04-26 09:56 35.84993 130.51864 39888 ft 433 kts 270°
2026-04-26 09:57 35.85925 130.44527 39887 ft 434 kts 270°
2026-04-26 09:57 35.86848 130.37167 39888 ft 435 kts 270°
2026-04-26 09:58 35.87616 130.30997 39887 ft 435 kts 270°
2026-04-26 09:58 35.88527 130.23671 39878 ft 435 kts 270°
2026-04-26 09:59 35.89445 130.16284 39879 ft 436 kts 270°
2026-04-26 09:59 35.90352 130.08891 39868 ft 436 kts 270°
2026-04-26 10:00 35.91260 130.01481 39868 ft 438 kts 270°
2026-04-26 10:00 35.92164 129.94062 39896 ft 437 kts 270°
2026-04-26 10:01 35.93061 129.86652 39898 ft 436 kts 270°
2026-04-26 10:01 35.93957 129.79245 39896 ft 437 kts 270°
2026-04-26 10:02 35.94845 129.71822 39892 ft 437 kts 270°
2026-04-26 10:02 35.95723 129.64393 39888 ft 438 kts 270°
2026-04-26 10:03 35.96602 129.56961 39888 ft 438 kts 270°
2026-04-26 10:03 35.97818 129.49548 39898 ft 448 kts 279°
2026-04-26 10:04 36.00599 129.42499 39892 ft 467 kts 294°
2026-04-26 10:04 36.04281 129.35909 39841 ft 470 kts 297°
2026-04-26 10:05 36.08120 129.29372 39843 ft 470 kts 298°
2026-04-26 10:05 36.11941 129.22830 39851 ft 469 kts 297°
2026-04-26 10:06 36.15732 129.16256 39871 ft 469 kts 297°
2026-04-26 10:06 36.19503 129.09682 39871 ft 468 kts 297°
2026-04-26 10:07 36.23270 129.03098 39866 ft 468 kts 298°
2026-04-26 10:07 36.27034 128.96505 39870 ft 469 kts 298°
2026-04-26 10:08 36.30796 128.89908 39868 ft 468 kts 298°
2026-04-26 10:08 36.34551 128.83318 39869 ft 468 kts 298°
2026-04-26 10:09 36.38302 128.76723 39869 ft 468 kts 298°
2026-04-26 10:09 36.42045 128.70119 39876 ft 468 kts 298°
2026-04-26 10:10 36.45784 128.63511 39860 ft 467 kts 298°
2026-04-26 10:10 36.49515 128.56903 39882 ft 467 kts 298°
2026-04-26 10:11 36.53246 128.50286 39887 ft 467 kts 298°
2026-04-26 10:11 36.56974 128.43660 39889 ft 468 kts 299°
2026-04-26 10:12 36.60696 128.37034 39886 ft 467 kts 299°
2026-04-26 10:12 36.64416 128.30411 39888 ft 467 kts 299°
2026-04-26 10:13 36.68152 128.23850 39879 ft 467 kts 299°
2026-04-26 10:13 36.71920 128.17250 39881 ft 468 kts 299°
2026-04-26 10:14 36.75687 128.10640 39874 ft 467 kts 299°
2026-04-26 10:14 36.79437 128.04020 39887 ft 467 kts 299°
2026-04-26 10:15 36.83174 127.97407 39888 ft 467 kts 300°
2026-04-26 10:15 36.86912 127.90792 39888 ft 466 kts 300°
2026-04-26 10:16 36.90637 127.84175 39892 ft 465 kts 300°
2026-04-26 10:16 36.94350 127.77571 39897 ft 464 kts 300°
2026-04-26 10:17 36.97933 127.71199 39895 ft 464 kts 300°
2026-04-26 10:17 37.01637 127.64590 39898 ft 464 kts 300°
2026-04-26 10:18 37.05332 127.57978 39908 ft 463 kts 300°
2026-04-26 10:18 37.09022 127.51366 39906 ft 463 kts 300°
2026-04-26 10:19 37.12707 127.44755 39912 ft 463 kts 300°
2026-04-26 10:19 37.16392 127.38138 39926 ft 462 kts 300°
2026-04-26 10:20 37.19439 127.32640 39940 ft 462 kts 300°
2026-04-26 10:20 37.23716 127.24908 39943 ft 462 kts 300°
2026-04-26 10:21 37.27347 127.18334 39942 ft 462 kts 300°
2026-04-26 10:21 37.31002 127.11708 39942 ft 461 kts 300°
2026-04-26 10:22 37.34649 127.05099 39936 ft 459 kts 300°
2026-04-26 10:22 37.38218 126.98446 39934 ft 457 kts 296°
2026-04-26 10:23 37.40601 126.91420 39941 ft 449 kts 281°
2026-04-26 10:23 37.41362 126.83718 39950 ft 442 kts 269°
2026-04-26 10:24 37.41384 126.75986 39960 ft 442 kts 268°
2026-04-26 10:24 37.41301 126.68252 39957 ft 442 kts 268°
2026-04-26 10:25 37.41231 126.60522 39959 ft 442 kts 268°
2026-04-26 10:25 37.41179 126.52794 39960 ft 442 kts 268°
2026-04-26 10:26 37.41129 126.45067 39965 ft 441 kts 268°
2026-04-26 10:26 37.41078 126.37404 39965 ft 441 kts 268°
2026-04-26 10:27 37.41021 126.29697 39962 ft 441 kts 268°
2026-04-26 10:27 37.40958 126.21980 39961 ft 441 kts 268°
2026-04-26 10:28 37.40890 126.14275 39959 ft 441 kts 268°
2026-04-26 10:28 37.40815 126.06561 39962 ft 441 kts 268°
2026-04-26 10:29 37.40737 125.98857 39961 ft 441 kts 268°
2026-04-26 10:29 37.40654 125.91160 39960 ft 440 kts 268°
2026-04-26 10:30 37.40567 125.83476 39961 ft 439 kts 268°
2026-04-26 10:30 37.40474 125.75791 39951 ft 439 kts 268°
2026-04-26 10:31 37.40376 125.68104 39951 ft 440 kts 268°
2026-04-26 10:31 37.40276 125.60427 39951 ft 440 kts 268°
2026-04-26 10:32 37.40166 125.52713 39952 ft 441 kts 268°
2026-04-26 10:32 37.40048 125.45002 39954 ft 440 kts 268°
2026-04-26 10:33 37.39933 125.37354 39954 ft 440 kts 268°
2026-04-26 10:33 37.39808 125.29672 39952 ft 439 kts 268°
2026-04-26 10:34 37.39680 125.21988 39950 ft 439 kts 268°
2026-04-26 10:34 37.39547 125.14305 39953 ft 439 kts 268°
2026-04-26 10:35 37.39413 125.06635 39953 ft 439 kts 268°
2026-04-26 10:35 37.39273 124.98959 39951 ft 439 kts 268°
2026-04-26 10:36 37.39127 124.91294 39944 ft 438 kts 268°
2026-04-26 10:36 37.39164 124.83635 39942 ft 438 kts 275°
2026-04-26 10:37 37.40144 124.76078 39946 ft 438 kts 279°
2026-04-26 10:37 37.41333 124.68550 39954 ft 438 kts 280°
2026-04-26 10:38 37.42546 124.61041 39952 ft 438 kts 280°
2026-04-26 10:38 37.43741 124.53538 39945 ft 437 kts 280°
2026-04-26 10:39 37.44920 124.46031 39943 ft 437 kts 280°
2026-04-26 10:39 37.46082 124.38587 39944 ft 436 kts 280°
2026-04-26 10:40 37.47254 124.31042 39941 ft 436 kts 280°
2026-04-26 10:40 37.48406 124.23604 39944 ft 436 kts 280°
2026-04-26 10:41 37.49559 124.16115 39949 ft 435 kts 280°
2026-04-26 10:41 37.50706 124.08639 39954 ft 435 kts 280°
2026-04-26 10:42 37.51663 124.02373 39952 ft 435 kts 280°
2026-04-26 10:42 37.52985 123.93686 39951 ft 434 kts 280°
2026-04-26 10:43 37.54115 123.86226 39954 ft 434 kts 280°
2026-04-26 10:43 37.55242 123.78752 39954 ft 434 kts 279°
2026-04-26 10:44 37.56361 123.71290 39955 ft 434 kts 279°
2026-04-26 10:44 37.57477 123.63816 39955 ft 434 kts 279°
2026-04-26 10:45 37.58588 123.56345 39964 ft 433 kts 279°
2026-04-26 10:45 37.59680 123.48969 39959 ft 434 kts 279°
2026-04-26 10:46 37.60784 123.41483 39963 ft 434 kts 279°
2026-04-26 10:46 37.61872 123.34058 39959 ft 434 kts 279°
2026-04-26 10:47 37.62972 123.26520 39954 ft 434 kts 279°
2026-04-26 10:47 37.64051 123.19099 39951 ft 433 kts 279°
2026-04-26 10:48 37.65133 123.11619 39952 ft 433 kts 279°
2026-04-26 10:48 37.66210 123.04145 39954 ft 433 kts 279°
2026-04-26 10:49 37.67280 122.96676 39954 ft 433 kts 279°
2026-04-26 10:49 37.68349 122.89187 39951 ft 432 kts 279°
2026-04-26 10:50 37.69226 122.83005 39952 ft 432 kts 279°
2026-04-26 10:50 37.70284 122.75528 39953 ft 432 kts 279°
2026-04-26 10:51 37.71754 122.65080 39951 ft 432 kts 279°
2026-04-26 10:52 37.72799 122.57601 39953 ft 431 kts 279°
2026-04-26 10:52 37.73835 122.50141 39954 ft 431 kts 279°
2026-04-26 10:53 37.74868 122.42688 39954 ft 431 kts 279°
2026-04-26 10:53 37.75896 122.35231 40048 ft 430 kts 279°
2026-04-26 10:54 37.77427 122.24053 40045 ft 430 kts 279°
2026-04-26 10:54 37.78441 122.16606 40051 ft 430 kts 279°
2026-04-26 10:55 37.79444 122.09205 40059 ft 430 kts 279°
2026-04-26 10:55 37.80448 122.01755 40055 ft 430 kts 279°
2026-04-26 10:56 37.81448 121.94297 40059 ft 430 kts 279°
2026-04-26 10:56 37.82444 121.86838 40049 ft 430 kts 279°
2026-04-26 10:57 37.83434 121.79381 40049 ft 430 kts 279°
2026-04-26 10:57 37.84421 121.71915 40051 ft 430 kts 279°
2026-04-26 10:58 37.85400 121.64464 40058 ft 429 kts 279°
2026-04-26 10:58 37.86374 121.57018 40045 ft 430 kts 279°
2026-04-26 10:59 37.87347 121.49544 40053 ft 430 kts 279°
2026-04-26 10:59 37.88314 121.42078 40051 ft 429 kts 279°
2026-04-26 11:00 37.89273 121.34630 40058 ft 429 kts 279°
2026-04-26 11:00 37.90227 121.27184 40053 ft 428 kts 279°
2026-04-26 11:01 37.91170 121.19792 40046 ft 428 kts 279°
2026-04-26 11:01 37.92112 121.12363 40058 ft 427 kts 279°
2026-04-26 11:02 37.93049 121.04933 40042 ft 427 kts 279°
2026-04-26 11:02 37.93981 120.97506 40040 ft 427 kts 279°
2026-04-26 11:03 37.94908 120.90087 40042 ft 426 kts 279°
2026-04-26 11:03 37.95828 120.82673 40046 ft 426 kts 279°
2026-04-26 11:04 37.96743 120.75271 40046 ft 425 kts 279°
2026-04-26 11:04 37.97651 120.67876 40048 ft 424 kts 279°
2026-04-26 11:05 37.98555 120.60482 40040 ft 424 kts 279°
2026-04-26 11:05 37.99455 120.53082 40042 ft 425 kts 279°
2026-04-26 11:06 38.00349 120.45685 40043 ft 424 kts 279°
2026-04-26 11:06 38.01238 120.38289 40046 ft 424 kts 279°
2026-04-26 11:07 38.02123 120.30891 40036 ft 424 kts 279°
2026-04-26 11:07 38.02997 120.23543 40025 ft 424 kts 279°
2026-04-26 11:08 38.03876 120.16109 40027 ft 423 kts 279°
2026-04-26 11:08 38.04740 120.08766 40023 ft 423 kts 279°
2026-04-26 11:09 38.05604 120.01377 40026 ft 423 kts 279°
2026-04-26 11:09 38.06464 119.93992 40021 ft 423 kts 279°
2026-04-26 11:10 38.07319 119.86597 40022 ft 423 kts 278°
2026-04-26 11:10 38.08170 119.79198 40022 ft 423 kts 278°
2026-04-26 11:11 38.09016 119.71803 40027 ft 423 kts 279°
2026-04-26 11:11 38.09857 119.64406 40026 ft 423 kts 278°
2026-04-26 11:12 38.10700 119.57016 40022 ft 423 kts 279°
2026-04-26 11:12 38.12273 119.49847 40023 ft 422 kts 290°
2026-04-26 11:13 38.14444 119.42912 40025 ft 423 kts 291°
2026-04-26 11:13 38.16707 119.36024 40027 ft 422 kts 291°
2026-04-26 11:14 38.18967 119.29140 40027 ft 422 kts 291°
2026-04-26 11:14 38.21203 119.22263 40023 ft 421 kts 291°
2026-04-26 11:15 38.23428 119.15379 40025 ft 420 kts 291°
2026-04-26 11:15 38.25643 119.08506 40025 ft 420 kts 291°
2026-04-26 11:16 38.27835 119.01691 40027 ft 419 kts 291°
2026-04-26 11:16 38.30036 118.94831 40027 ft 418 kts 291°
2026-04-26 11:17 38.32230 118.87977 40028 ft 418 kts 291°
2026-04-26 11:17 38.34417 118.81129 40035 ft 417 kts 291°
2026-04-26 11:18 38.36601 118.74281 40037 ft 416 kts 291°
2026-04-26 11:18 38.38784 118.67456 40037 ft 416 kts 291°
2026-04-26 11:19 38.40959 118.60634 40035 ft 415 kts 291°
2026-04-26 11:19 38.43128 118.53816 40032 ft 414 kts 291°
2026-04-26 11:20 38.44925 118.48156 40032 ft 414 kts 291°
2026-04-26 11:20 38.47446 118.40199 40033 ft 414 kts 291°
2026-04-26 11:21 38.49597 118.33400 40037 ft 413 kts 291°
2026-04-26 11:21 38.51735 118.26598 40032 ft 413 kts 291°
2026-04-26 11:22 38.53870 118.19791 40033 ft 413 kts 291°
2026-04-26 11:22 38.56000 118.12989 40032 ft 413 kts 291°
2026-04-26 11:23 38.58208 118.06221 40032 ft 413 kts 295°
2026-04-26 11:23 38.61376 118.00086 40037 ft 416 kts 308°
2026-04-26 11:24 38.65291 117.94618 40032 ft 417 kts 310°
2026-04-26 11:24 38.69319 117.89279 40032 ft 417 kts 310°
2026-04-26 11:25 38.73357 117.83934 40037 ft 418 kts 310°
2026-04-26 11:25 38.77378 117.78567 40037 ft 418 kts 310°
2026-04-26 11:26 38.81371 117.73208 40036 ft 418 kts 310°
2026-04-26 11:26 38.85389 117.67802 40035 ft 419 kts 310°
2026-04-26 11:27 38.89402 117.62395 40032 ft 419 kts 310°
2026-04-26 11:27 38.93426 117.56963 40036 ft 420 kts 310°
2026-04-26 11:28 38.97453 117.51520 40031 ft 420 kts 310°
2026-04-26 11:28 39.01478 117.46070 40038 ft 421 kts 310°
2026-04-26 11:29 39.05308 117.40407 40036 ft 418 kts 302°
2026-04-26 11:29 39.08005 117.33834 40036 ft 415 kts 289°
2026-04-26 11:30 39.09191 117.27854 40036 ft 416 kts 282°
2026-04-26 11:30 39.10362 117.19264 40036 ft 417 kts 281°
2026-04-26 11:31 39.11296 117.11914 40030 ft 416 kts 281°
2026-04-26 11:31 39.12258 117.04562 40032 ft 416 kts 282°
2026-04-26 11:32 39.14006 116.97503 40038 ft 415 kts 294°
2026-04-26 11:32 39.16838 116.91014 40032 ft 416 kts 299°
2026-04-26 11:33 39.19889 116.84666 40033 ft 416 kts 300°
2026-04-26 11:33 39.22932 116.78392 40037 ft 416 kts 300°
2026-04-26 11:34 39.25985 116.72041 40030 ft 416 kts 300°
2026-04-26 11:34 39.29019 116.65683 40031 ft 416 kts 300°
2026-04-26 11:35 39.32049 116.59314 40035 ft 416 kts 300°
2026-04-26 11:35 39.34566 116.54013 40035 ft 416 kts 300°
2026-04-26 11:36 39.38102 116.46555 40037 ft 416 kts 300°
2026-04-26 11:36 39.41125 116.40163 40037 ft 417 kts 300°
2026-04-26 11:37 39.44143 116.33770 40033 ft 417 kts 300°
2026-04-26 11:37 39.47162 116.27362 40038 ft 417 kts 300°
2026-04-26 11:38 39.50175 116.20955 40037 ft 417 kts 299°
2026-04-26 11:38 39.53168 116.14577 40032 ft 417 kts 299°
2026-04-26 11:39 39.56177 116.08150 40030 ft 417 kts 299°
2026-04-26 11:39 39.59183 116.01718 40035 ft 417 kts 299°
2026-04-26 11:40 39.62187 115.95276 40033 ft 417 kts 299°
2026-04-26 11:40 39.65186 115.88832 40030 ft 417 kts 299°
2026-04-26 11:42 39.76649 115.64074 40033 ft 417 kts 299°
2026-04-26 11:43 39.79652 115.57557 40036 ft 417 kts 299°
2026-04-26 11:43 39.82614 115.51122 40029 ft 417 kts 299°
2026-04-26 11:44 39.85588 115.44645 40029 ft 417 kts 299°
2026-04-26 11:44 39.88559 115.38155 40031 ft 417 kts 299°
2026-04-26 11:45 39.91522 115.31672 40037 ft 416 kts 299°
2026-04-26 11:45 39.94473 115.25195 40037 ft 416 kts 299°
2026-04-26 11:46 39.97424 115.18709 40030 ft 416 kts 299°
2026-04-26 11:46 40.00377 115.12216 40033 ft 416 kts 299°
2026-04-26 11:47 40.03327 115.05709 40035 ft 417 kts 299°
2026-04-26 11:47 40.06280 114.99173 40034 ft 418 kts 299°
2026-04-26 11:48 40.09233 114.92625 40033 ft 419 kts 299°
2026-04-26 11:48 40.12188 114.86060 40034 ft 419 kts 299°
2026-04-26 11:49 40.15137 114.79498 40033 ft 419 kts 299°
2026-04-26 11:49 40.18085 114.72925 40030 ft 418 kts 299°
2026-04-26 11:50 40.21021 114.66363 40031 ft 418 kts 299°
2026-04-26 11:50 40.23953 114.59797 40037 ft 418 kts 299°
2026-04-26 11:51 40.26876 114.53235 40028 ft 418 kts 299°
2026-04-26 11:51 40.29788 114.46685 40028 ft 418 kts 299°
2026-04-26 11:52 40.32709 114.40101 40025 ft 417 kts 298°
2026-04-26 11:52 40.35617 114.33531 40021 ft 417 kts 299°
2026-04-26 11:53 40.38525 114.26950 40028 ft 417 kts 299°
2026-04-26 11:54 40.42876 114.17074 40026 ft 417 kts 298°
2026-04-26 11:54 40.45773 114.10479 40027 ft 417 kts 298°
2026-04-26 11:55 40.48642 114.03862 40022 ft 417 kts 296°
2026-04-26 11:55 40.50665 113.96756 40024 ft 417 kts 284°
2026-04-26 11:56 40.51507 113.89202 40026 ft 418 kts 278°
2026-04-26 11:56 40.52069 113.81595 40030 ft 419 kts 277°
2026-04-26 11:57 40.52595 113.73974 40042 ft 419 kts 277°
2026-04-26 11:57 40.52863 113.70168 40145 ft 419 kts 277°
2026-04-26 11:57 40.53134 113.66348 40285 ft 418 kts 277°
2026-04-26 11:58 40.53684 113.58718 40440 ft 420 kts 277°
2026-04-26 11:58 40.54230 113.51122 40606 ft 421 kts 277°
2026-04-26 11:59 40.54774 113.43451 40791 ft 422 kts 277°
2026-04-26 11:59 40.55484 113.35790 40937 ft 422 kts 282°
2026-04-26 12:00 40.56619 113.28224 41096 ft 422 kts 283°
2026-04-26 12:00 40.57850 113.20661 41226 ft 423 kts 283°
2026-04-26 12:01 40.59086 113.13086 41399 ft 423 kts 283°
2026-04-26 12:01 40.60306 113.05498 41512 ft 424 kts 283°
2026-04-26 12:02 40.61517 112.97897 41640 ft 425 kts 283°
2026-04-26 12:02 40.62722 112.90286 41768 ft 425 kts 283°
2026-04-26 12:03 40.63924 112.82657 41897 ft 426 kts 283°
2026-04-26 12:03 40.65124 112.75016 41933 ft 427 kts 283°
2026-04-26 12:04 40.66319 112.67366 41937 ft 426 kts 283°
2026-04-26 12:04 40.67507 112.59732 41929 ft 425 kts 283°
2026-04-26 12:05 40.68690 112.52100 41939 ft 425 kts 283°
2026-04-26 12:05 40.69867 112.44461 41932 ft 425 kts 283°
2026-04-26 12:06 40.71036 112.36840 41937 ft 424 kts 283°
2026-04-26 12:06 40.72200 112.29219 41931 ft 424 kts 283°
2026-04-26 12:07 40.73358 112.21601 41938 ft 424 kts 283°
2026-04-26 12:07 40.74509 112.13988 41927 ft 424 kts 283°
2026-04-26 12:08 40.75657 112.06364 41933 ft 424 kts 283°
2026-04-26 12:08 40.76802 111.98726 41936 ft 425 kts 283°
2026-04-26 12:09 40.77940 111.91093 41939 ft 423 kts 283°
2026-04-26 12:09 40.79064 111.83520 41935 ft 423 kts 283°
2026-04-26 12:10 40.80196 111.75859 41928 ft 423 kts 283°
2026-04-26 12:10 40.81309 111.68293 41938 ft 423 kts 283°
2026-04-26 12:11 40.82425 111.60672 41937 ft 423 kts 283°
2026-04-26 12:11 40.83535 111.53045 41929 ft 423 kts 283°
2026-04-26 12:12 40.84642 111.45405 41939 ft 424 kts 283°
2026-04-26 12:12 40.85747 111.37749 41931 ft 424 kts 283°
2026-04-26 12:13 40.86845 111.30096 41938 ft 424 kts 283°
2026-04-26 12:13 40.87939 111.22438 41943 ft 424 kts 283°
2026-04-26 12:14 40.89027 111.14779 41944 ft 424 kts 282°
2026-04-26 12:14 40.90111 111.07111 41942 ft 424 kts 282°
2026-04-26 12:15 40.91189 110.99444 41942 ft 424 kts 282°
2026-04-26 12:15 40.92261 110.91784 41948 ft 424 kts 282°
2026-04-26 12:16 40.93329 110.84118 41950 ft 424 kts 282°
2026-04-26 12:16 40.94392 110.76446 41944 ft 424 kts 282°
2026-04-26 12:17 40.95450 110.68771 41943 ft 424 kts 282°
2026-04-26 12:17 40.96503 110.61095 41942 ft 424 kts 282°
2026-04-26 12:18 40.97543 110.53466 41940 ft 424 kts 282°
2026-04-26 12:18 40.98592 110.45737 41945 ft 424 kts 282°
2026-04-26 12:19 40.99622 110.38110 41943 ft 424 kts 282°
2026-04-26 12:19 41.00654 110.30424 41942 ft 424 kts 282°
2026-04-26 12:20 41.01682 110.22731 41944 ft 424 kts 282°
2026-04-26 12:20 41.02703 110.15046 41939 ft 424 kts 282°
2026-04-26 12:21 41.03721 110.07347 41944 ft 424 kts 282°
2026-04-26 12:21 41.04731 109.99665 41945 ft 424 kts 282°
2026-04-26 12:22 41.05739 109.91956 41949 ft 424 kts 282°
2026-04-26 12:22 41.06740 109.84259 41951 ft 424 kts 282°
2026-04-26 12:23 41.07729 109.76616 41951 ft 424 kts 282°
2026-04-26 12:23 41.08722 109.68909 41952 ft 424 kts 282°
2026-04-26 12:24 41.09706 109.61209 41953 ft 424 kts 282°
2026-04-26 12:24 41.10686 109.53507 41951 ft 424 kts 282°
2026-04-26 12:25 41.12149 109.41935 41951 ft 424 kts 282°
2026-04-26 12:25 41.13116 109.34230 41952 ft 424 kts 282°
2026-04-26 12:26 41.14080 109.26511 41950 ft 424 kts 282°
2026-04-26 12:26 41.15037 109.18799 41964 ft 424 kts 282°
2026-04-26 12:27 41.15989 109.11084 41963 ft 424 kts 282°
2026-04-26 12:27 41.16936 109.03364 41962 ft 424 kts 281°
2026-04-26 12:28 41.17877 108.95642 41961 ft 424 kts 281°
2026-04-26 12:28 41.18815 108.87913 41962 ft 425 kts 281°
2026-04-26 12:29 41.19748 108.80176 41962 ft 425 kts 281°
2026-04-26 12:30 41.21133 108.68605 41978 ft 424 kts 281°
2026-04-26 12:30 41.22053 108.60861 41998 ft 425 kts 281°
2026-04-26 12:31 41.23426 108.49220 42008 ft 426 kts 281°
2026-04-26 12:31 41.24336 108.41445 42008 ft 426 kts 281°
2026-04-26 12:32 41.25243 108.33656 42008 ft 427 kts 281°
2026-04-26 12:33 41.26442 108.23276 42020 ft 427 kts 281°
2026-04-26 12:33 41.27337 108.15474 42018 ft 427 kts 281°
2026-04-26 12:34 41.28227 108.07667 42017 ft 427 kts 281°
2026-04-26 12:34 41.29111 107.99868 42025 ft 427 kts 281°
2026-04-26 12:35 41.29991 107.92046 42025 ft 428 kts 281°
2026-04-26 12:35 41.30865 107.84234 42028 ft 427 kts 281°
2026-04-26 12:36 41.31734 107.76423 42030 ft 427 kts 281°
2026-04-26 12:36 41.32598 107.68604 42035 ft 427 kts 281°
2026-04-26 12:37 41.33456 107.60789 42037 ft 427 kts 280°
2026-04-26 12:37 41.34308 107.52968 42045 ft 427 kts 281°
2026-04-26 12:38 41.35155 107.45144 42045 ft 427 kts 281°
2026-04-26 12:38 41.35997 107.37329 42053 ft 427 kts 281°
2026-04-26 12:39 41.36827 107.29564 42054 ft 427 kts 281°
2026-04-26 12:39 41.37659 107.21748 42059 ft 426 kts 281°
2026-04-26 12:40 41.38480 107.13941 42067 ft 426 kts 281°
2026-04-26 12:40 41.39304 107.06139 42065 ft 425 kts 280°
2026-04-26 12:41 41.40116 106.98333 42064 ft 426 kts 280°
2026-04-26 12:41 41.40920 106.90538 42076 ft 424 kts 280°
2026-04-26 12:42 41.41720 106.82754 42081 ft 424 kts 280°
2026-04-26 12:42 41.42512 106.74953 42092 ft 425 kts 280°
2026-04-26 12:43 41.43304 106.67151 42074 ft 425 kts 280°
2026-04-26 12:43 41.44092 106.59349 42084 ft 424 kts 280°
2026-04-26 12:44 41.44871 106.51551 42085 ft 425 kts 280°
2026-04-26 12:44 41.45644 106.43749 42080 ft 425 kts 280°
2026-04-26 12:45 41.46416 106.35932 42082 ft 426 kts 280°
2026-04-26 12:45 41.47180 106.28106 42090 ft 425 kts 280°
2026-04-26 12:46 41.47941 106.20288 42088 ft 426 kts 280°
2026-04-26 12:46 41.48694 106.12449 42093 ft 427 kts 280°
2026-04-26 12:47 41.49444 106.04615 42093 ft 426 kts 280°
2026-04-26 12:47 41.50190 105.96754 42097 ft 427 kts 280°
2026-04-26 12:48 41.50925 105.88967 42100 ft 426 kts 279°
2026-04-26 12:48 41.51660 105.81121 42101 ft 426 kts 279°
2026-04-26 12:49 41.52391 105.73274 42100 ft 427 kts 279°
2026-04-26 12:49 41.53114 105.65419 42099 ft 426 kts 279°
2026-04-26 12:50 41.53835 105.57564 42109 ft 426 kts 279°
2026-04-26 12:50 41.54547 105.49714 42109 ft 425 kts 279°
2026-04-26 12:51 41.55252 105.41888 42110 ft 425 kts 279°
2026-04-26 12:51 41.55952 105.34060 42110 ft 424 kts 279°
2026-04-26 12:52 41.56649 105.26243 42110 ft 424 kts 279°
2026-04-26 12:52 41.57338 105.18432 42117 ft 424 kts 279°
2026-04-26 12:53 41.58023 105.10607 42119 ft 424 kts 279°
2026-04-26 12:53 41.58700 105.02789 42120 ft 424 kts 279°
2026-04-26 12:54 41.59368 104.94982 42119 ft 423 kts 279°
2026-04-26 12:54 41.60031 104.87174 42118 ft 423 kts 279°
2026-04-26 12:55 41.60689 104.79363 42120 ft 423 kts 279°
2026-04-26 12:55 41.61345 104.71565 42127 ft 423 kts 279°
2026-04-26 12:56 41.61997 104.63764 42126 ft 422 kts 278°
2026-04-26 12:56 41.62639 104.56012 42129 ft 423 kts 279°
2026-04-26 12:57 41.63272 104.48219 42129 ft 423 kts 278°
2026-04-26 12:57 41.63905 104.40403 42126 ft 422 kts 278°
2026-04-26 12:58 41.64842 104.28713 42129 ft 422 kts 278°
2026-04-26 12:58 41.65463 104.20897 42131 ft 423 kts 278°
2026-04-26 12:59 41.66080 104.13066 42128 ft 423 kts 278°
2026-04-26 12:59 41.66689 104.05237 42129 ft 423 kts 278°
2026-04-26 13:00 41.67296 103.97418 42128 ft 422 kts 278°
2026-04-26 13:00 41.67898 103.89605 42130 ft 423 kts 278°
2026-04-26 13:01 41.68492 103.81770 42126 ft 423 kts 278°
2026-04-26 13:01 41.69078 103.73936 42136 ft 423 kts 278°
2026-04-26 13:02 41.69662 103.66104 42134 ft 423 kts 278°
2026-04-26 13:02 41.70243 103.58283 42137 ft 423 kts 278°
2026-04-26 13:03 41.70818 103.50446 42191 ft 423 kts 278°
2026-04-26 13:03 41.71378 103.42616 42192 ft 423 kts 278°
2026-04-26 13:04 41.71945 103.34746 42191 ft 426 kts 278°
2026-04-26 13:04 41.72507 103.26820 42193 ft 430 kts 277°
2026-04-26 13:05 41.73070 103.18840 42191 ft 432 kts 277°
2026-04-26 13:05 41.73631 103.10825 42192 ft 433 kts 277°
2026-04-26 13:06 41.74183 103.02782 42193 ft 434 kts 277°
2026-04-26 13:06 41.74734 102.94730 42193 ft 435 kts 277°
2026-04-26 13:07 41.75279 102.86661 42193 ft 435 kts 277°
2026-04-26 13:07 41.75822 102.78585 42193 ft 436 kts 277°
2026-04-26 13:08 41.76338 102.70808 42194 ft 436 kts 277°
2026-04-26 13:08 41.76865 102.62716 42192 ft 436 kts 277°
2026-04-26 13:09 41.77382 102.54625 42193 ft 436 kts 277°
2026-04-26 13:09 41.77900 102.46517 42193 ft 437 kts 276°
2026-04-26 13:10 41.78413 102.38446 42191 ft 438 kts 276°
2026-04-26 13:10 41.78924 102.30318 42193 ft 438 kts 276°
2026-04-26 13:11 41.79427 102.22182 42193 ft 438 kts 276°
2026-04-26 13:11 41.79920 102.14065 42192 ft 437 kts 276°
2026-04-26 13:12 41.80414 102.05935 42193 ft 438 kts 276°
2026-04-26 13:12 41.80901 101.97793 42192 ft 439 kts 276°
2026-04-26 13:13 41.81383 101.89637 42193 ft 439 kts 276°
2026-04-26 13:13 41.81859 101.81475 42178 ft 439 kts 276°
2026-04-26 13:14 41.82329 101.73311 42177 ft 439 kts 276°
2026-04-26 13:14 41.82793 101.65142 42173 ft 439 kts 276°
2026-04-26 13:15 41.83251 101.56983 42174 ft 439 kts 276°
2026-04-26 13:15 41.83628 101.50194 42174 ft 439 kts 276°
2026-04-26 13:16 41.84150 101.40657 42174 ft 439 kts 276°
2026-04-26 13:16 41.84588 101.32554 42175 ft 439 kts 276°
2026-04-26 13:17 41.85231 101.20318 42183 ft 438 kts 275°
2026-04-26 13:18 41.85538 101.08047 42184 ft 439 kts 273°
2026-04-26 13:19 41.85775 100.95775 42184 ft 439 kts 273°
2026-04-26 13:19 41.85957 100.87594 42184 ft 439 kts 273°
2026-04-26 13:20 41.86141 100.79415 42184 ft 439 kts 273°
2026-04-26 13:20 41.86319 100.71231 42184 ft 439 kts 273°
2026-04-26 13:21 41.86490 100.63037 42184 ft 440 kts 273°
2026-04-26 13:21 41.86654 100.54883 42183 ft 440 kts 273°
2026-04-26 13:22 41.86813 100.46675 42183 ft 440 kts 273°
2026-04-26 13:22 41.86967 100.38464 42184 ft 441 kts 273°
2026-04-26 13:23 41.87115 100.30237 42183 ft 441 kts 273°
2026-04-26 13:23 41.87257 100.22005 42183 ft 441 kts 273°
2026-04-26 13:24 41.87393 100.13771 42183 ft 442 kts 273°
2026-04-26 13:24 41.87502 100.06910 42162 ft 442 kts 273°
2026-04-26 13:25 41.87628 99.98657 42174 ft 442 kts 272°
2026-04-26 13:25 41.87747 99.90409 42174 ft 443 kts 272°
2026-04-26 13:26 41.87861 99.82146 42175 ft 443 kts 272°
2026-04-26 13:26 41.87969 99.73894 42174 ft 442 kts 272°
2026-04-26 13:27 41.88071 99.65640 42175 ft 442 kts 272°
2026-04-26 13:27 41.88168 99.57389 42174 ft 442 kts 272°
2026-04-26 13:28 41.88258 99.49137 42176 ft 442 kts 272°
2026-04-26 13:28 41.88342 99.40884 42176 ft 442 kts 272°
2026-04-26 13:29 41.88421 99.32629 42174 ft 442 kts 272°
2026-04-26 13:29 41.88493 99.24432 42175 ft 442 kts 272°
2026-04-26 13:30 41.88559 99.16187 42176 ft 442 kts 272°
2026-04-26 13:30 41.88620 99.07954 42175 ft 441 kts 272°
2026-04-26 13:31 41.88675 98.99723 42174 ft 441 kts 271°
2026-04-26 13:31 41.88724 98.91492 42165 ft 441 kts 271°
2026-04-26 13:32 41.88767 98.83253 42176 ft 442 kts 271°
2026-04-26 13:32 41.88804 98.75005 42175 ft 442 kts 271°
2026-04-26 13:33 41.88835 98.66799 42165 ft 443 kts 271°
2026-04-26 13:33 41.88860 98.58549 42172 ft 443 kts 271°
2026-04-26 13:34 41.88880 98.50286 42162 ft 443 kts 271°
2026-04-26 13:34 41.88893 98.42010 42167 ft 443 kts 271°
2026-04-26 13:35 41.88901 98.33740 42161 ft 444 kts 271°
2026-04-26 13:35 41.88903 98.25454 42163 ft 444 kts 271°
2026-04-26 13:36 41.88898 98.17158 42170 ft 445 kts 271°
2026-04-26 13:36 41.88890 98.10255 42162 ft 445 kts 270°
2026-04-26 13:37 41.88872 98.00652 42170 ft 445 kts 270°
2026-04-26 13:37 41.88850 97.92346 42160 ft 445 kts 270°
2026-04-26 13:38 41.88822 97.84035 42159 ft 445 kts 270°
2026-04-26 13:38 41.88788 97.75714 42172 ft 445 kts 270°
2026-04-26 13:39 41.88748 97.67466 42166 ft 445 kts 270°
2026-04-26 13:39 41.88702 97.59163 42162 ft 445 kts 270°
2026-04-26 13:40 41.88650 97.50868 42171 ft 445 kts 270°
2026-04-26 13:40 41.88592 97.42562 42158 ft 445 kts 270°
2026-04-26 13:41 41.88528 97.34261 42170 ft 445 kts 270°
2026-04-26 13:41 41.88458 97.25948 42146 ft 446 kts 270°
2026-04-26 13:42 41.88382 97.17630 42157 ft 446 kts 270°
2026-04-26 13:42 41.88300 97.09303 42145 ft 446 kts 270°
2026-04-26 13:43 41.88212 97.00978 42151 ft 447 kts 270°
2026-04-26 13:43 41.88118 96.92642 42149 ft 447 kts 270°
2026-04-26 13:44 41.88017 96.84291 42155 ft 448 kts 270°
2026-04-26 13:44 41.87910 96.75940 42155 ft 448 kts 269°
2026-04-26 13:45 41.87798 96.67618 42150 ft 449 kts 269°
2026-04-26 13:45 41.87679 96.59236 42151 ft 450 kts 269°
2026-04-26 13:46 41.87554 96.50835 42157 ft 451 kts 269°
2026-04-26 13:46 41.87422 96.42411 42160 ft 452 kts 269°
2026-04-26 13:47 41.87283 96.33974 42154 ft 452 kts 269°
2026-04-26 13:47 41.87139 96.25542 42148 ft 452 kts 269°
2026-04-26 13:48 41.87036 96.17103 42153 ft 452 kts 270°
2026-04-26 13:48 41.87009 96.08653 42155 ft 453 kts 270°
2026-04-26 13:49 41.86976 96.00199 42145 ft 453 kts 270°
2026-04-26 13:49 41.86924 95.91745 42145 ft 453 kts 270°
2026-04-26 13:50 41.86859 95.83293 42148 ft 453 kts 270°
2026-04-26 13:50 41.86786 95.74832 42152 ft 453 kts 270°
2026-04-26 13:51 41.86709 95.66460 42150 ft 453 kts 270°
2026-04-26 13:51 41.86625 95.58013 42150 ft 453 kts 270°
2026-04-26 13:52 41.86535 95.49576 42139 ft 452 kts 270°
2026-04-26 13:52 41.86439 95.41133 42146 ft 452 kts 269°
2026-04-26 13:53 41.86337 95.32701 42146 ft 452 kts 269°
2026-04-26 13:53 41.86257 95.24259 42142 ft 452 kts 272°
2026-04-26 13:54 41.87190 95.16001 42150 ft 453 kts 284°
2026-04-26 13:54 41.89005 95.07901 42148 ft 453 kts 286°
2026-04-26 13:55 41.91623 94.97128 42148 ft 454 kts 287°
2026-04-26 13:56 41.94848 94.83719 42149 ft 454 kts 286°
2026-04-26 13:56 41.96766 94.75628 42141 ft 454 kts 286°
2026-04-26 13:57 41.98677 94.67530 42140 ft 455 kts 286°
2026-04-26 13:57 42.00586 94.59414 42143 ft 456 kts 286°
2026-04-26 13:58 42.02494 94.51277 42148 ft 457 kts 286°
2026-04-26 13:58 42.04403 94.43106 42141 ft 458 kts 286°
2026-04-26 13:59 42.06305 94.34939 42141 ft 458 kts 286°
2026-04-26 13:59 42.08203 94.26756 42139 ft 458 kts 286°
2026-04-26 14:00 42.11973 94.10416 42134 ft 457 kts 286°
2026-04-26 14:01 42.13849 94.02237 42135 ft 457 kts 285°
2026-04-26 14:01 42.15719 93.94057 42133 ft 457 kts 285°
2026-04-26 14:02 42.17581 93.85877 42135 ft 457 kts 285°
2026-04-26 14:02 42.19440 93.77686 42136 ft 457 kts 285°
2026-04-26 14:03 42.21295 93.69478 42136 ft 458 kts 285°
2026-04-26 14:03 42.23132 93.61320 42136 ft 458 kts 285°
2026-04-26 14:04 42.24976 93.53099 42145 ft 459 kts 285°
2026-04-26 14:04 42.26821 93.44846 42141 ft 459 kts 285°
2026-04-26 14:05 42.28659 93.36593 42143 ft 459 kts 285°
2026-04-26 14:05 42.30493 93.28322 42144 ft 460 kts 285°
2026-04-26 14:06 42.32322 93.20048 42145 ft 460 kts 285°
2026-04-26 14:06 42.34127 93.11847 42146 ft 460 kts 285°
2026-04-26 14:07 42.35947 93.03547 42139 ft 461 kts 285°
2026-04-26 14:07 42.37761 92.95240 42149 ft 461 kts 285°
2026-04-26 14:08 42.39573 92.86914 42152 ft 462 kts 285°
2026-04-26 14:08 42.41379 92.78581 42143 ft 462 kts 285°
2026-04-26 14:09 42.43179 92.70241 42148 ft 462 kts 285°
2026-04-26 14:09 42.44963 92.61944 42141 ft 462 kts 285°
2026-04-26 14:10 42.46763 92.53542 42131 ft 462 kts 285°
2026-04-26 14:10 42.48545 92.45187 42127 ft 462 kts 285°
2026-04-26 14:11 42.51207 92.32646 42126 ft 462 kts 284°
2026-04-26 14:11 42.52961 92.24344 42128 ft 462 kts 284°
2026-04-26 14:12 42.54721 92.15977 42124 ft 462 kts 284°
2026-04-26 14:12 42.56477 92.07598 42131 ft 462 kts 284°
2026-04-26 14:13 42.59098 91.95023 42130 ft 462 kts 284°
2026-04-26 14:14 42.60841 91.86619 42125 ft 463 kts 284°
2026-04-26 14:14 42.62580 91.78203 42129 ft 463 kts 284°
2026-04-26 14:15 42.64313 91.69776 42129 ft 464 kts 284°
2026-04-26 14:15 42.66043 91.61334 42128 ft 464 kts 284°
2026-04-26 14:16 42.67767 91.52886 42128 ft 465 kts 284°
2026-04-26 14:16 42.69488 91.44411 42129 ft 465 kts 284°
2026-04-26 14:17 42.71204 91.35931 42130 ft 466 kts 284°
2026-04-26 14:17 42.72917 91.27432 42137 ft 466 kts 284°
2026-04-26 14:18 42.74624 91.18923 42152 ft 466 kts 284°
2026-04-26 14:18 42.76326 91.10402 42161 ft 467 kts 284°
2026-04-26 14:19 42.78024 91.01867 42163 ft 467 kts 284°
2026-04-26 14:19 42.79718 90.93315 42150 ft 468 kts 284°
2026-04-26 14:20 42.81406 90.84754 42160 ft 469 kts 284°
2026-04-26 14:20 42.83079 90.76232 42151 ft 469 kts 284°
2026-04-26 14:21 42.84760 90.67636 42154 ft 470 kts 284°
2026-04-26 14:21 42.86435 90.59032 42155 ft 470 kts 284°
2026-04-26 14:22 42.88107 90.50407 42159 ft 471 kts 284°
2026-04-26 14:22 42.89502 90.43178 42163 ft 471 kts 284°
2026-04-26 14:23 42.91150 90.34607 42164 ft 471 kts 284°
2026-04-26 14:23 42.92806 90.25956 42148 ft 471 kts 284°
2026-04-26 14:24 42.94457 90.17284 42155 ft 472 kts 284°
2026-04-26 14:24 42.96102 90.08617 42151 ft 472 kts 284°
2026-04-26 14:25 42.97741 89.99936 42163 ft 472 kts 284°
2026-04-26 14:25 42.99373 89.91251 42155 ft 472 kts 284°
2026-04-26 14:26 43.01000 89.82555 42154 ft 473 kts 284°
2026-04-26 14:26 43.02622 89.73847 42159 ft 473 kts 284°
2026-04-26 14:27 43.04238 89.65128 42147 ft 473 kts 284°
2026-04-26 14:27 43.05849 89.56401 42150 ft 474 kts 284°
2026-04-26 14:28 43.07453 89.47669 42160 ft 473 kts 284°
2026-04-26 14:28 43.09045 89.38960 42148 ft 472 kts 284°
2026-04-26 14:29 43.10630 89.30250 42164 ft 472 kts 284°
2026-04-26 14:29 43.12209 89.21530 42151 ft 471 kts 284°
2026-04-26 14:30 43.13779 89.12825 42164 ft 471 kts 284°
2026-04-26 14:30 43.15330 89.04178 42155 ft 471 kts 284°
2026-04-26 14:31 43.16884 88.95476 42154 ft 471 kts 284°
2026-04-26 14:31 43.18432 88.86763 42150 ft 470 kts 283°
2026-04-26 14:32 43.19974 88.78050 42153 ft 470 kts 283°
2026-04-26 14:32 43.21507 88.69340 42150 ft 471 kts 283°
2026-04-26 14:33 43.23038 88.60601 42152 ft 471 kts 283°
2026-04-26 14:33 43.24562 88.51857 42157 ft 471 kts 283°
2026-04-26 14:34 43.26077 88.43123 42154 ft 471 kts 283°
2026-04-26 14:34 43.27586 88.34382 42150 ft 470 kts 283°
2026-04-26 14:35 43.29087 88.25645 42153 ft 470 kts 283°
2026-04-26 14:35 43.30579 88.16917 42154 ft 470 kts 283°
2026-04-26 14:36 43.32066 88.08173 42150 ft 470 kts 283°
2026-04-26 14:36 43.33536 87.99491 42149 ft 470 kts 283°
2026-04-26 14:37 43.35010 87.90740 42157 ft 470 kts 283°
2026-04-26 14:37 43.36478 87.81981 42157 ft 471 kts 283°
2026-04-26 14:38 43.37940 87.73211 42152 ft 472 kts 283°
2026-04-26 14:38 43.39401 87.64405 42163 ft 471 kts 283°
2026-04-26 14:39 43.40852 87.55614 42152 ft 472 kts 283°
2026-04-26 14:39 43.42297 87.46811 42151 ft 472 kts 283°
2026-04-26 14:40 43.43736 87.37997 42157 ft 472 kts 283°
2026-04-26 14:40 43.45169 87.29178 42154 ft 472 kts 283°
2026-04-26 14:41 43.46594 87.20366 42158 ft 472 kts 283°
2026-04-26 14:41 43.48012 87.11549 42163 ft 472 kts 283°
2026-04-26 14:42 43.49423 87.02727 42157 ft 472 kts 283°
2026-04-26 14:42 43.50827 86.93904 42151 ft 471 kts 282°
2026-04-26 14:43 43.52223 86.85090 42153 ft 471 kts 282°
2026-04-26 14:43 43.53599 86.76259 42154 ft 471 kts 281°
2026-04-26 14:44 43.53960 86.67257 42158 ft 472 kts 267°
2026-04-26 14:44 43.53412 86.58231 42153 ft 473 kts 265°
2026-04-26 14:45 43.52708 86.49213 42160 ft 473 kts 265°
2026-04-26 14:45 43.51998 86.40254 42157 ft 473 kts 265°
2026-04-26 14:46 43.51297 86.31249 42153 ft 473 kts 265°
2026-04-26 14:46 43.50597 86.22235 42164 ft 473 kts 265°
2026-04-26 14:47 43.49893 86.13227 42147 ft 473 kts 265°
2026-04-26 14:47 43.49181 86.04212 42148 ft 473 kts 265°
2026-04-26 14:48 43.48462 85.95218 42151 ft 473 kts 265°
2026-04-26 14:48 43.47734 85.86213 42158 ft 473 kts 265°
2026-04-26 14:49 43.47001 85.77205 42161 ft 474 kts 264°
2026-04-26 14:49 43.46261 85.68205 42158 ft 473 kts 264°
2026-04-26 14:50 43.45512 85.59196 42147 ft 474 kts 264°
2026-04-26 14:50 43.44760 85.50245 42163 ft 475 kts 264°
2026-04-26 14:51 43.43997 85.41236 42150 ft 474 kts 264°
2026-04-26 14:51 43.43226 85.32219 42144 ft 474 kts 264°
2026-04-26 14:52 43.42449 85.23210 42143 ft 474 kts 264°
2026-04-26 14:52 43.41671 85.14280 42141 ft 475 kts 264°
2026-04-26 14:53 43.40876 85.05250 42152 ft 475 kts 264°
2026-04-26 14:53 43.40075 84.96225 42150 ft 476 kts 264°
2026-04-26 14:54 43.39266 84.87189 42145 ft 476 kts 264°
2026-04-26 14:54 43.38449 84.78154 42154 ft 476 kts 264°
2026-04-26 14:55 43.37626 84.69122 42143 ft 476 kts 264°
2026-04-26 14:55 43.36795 84.60085 42141 ft 477 kts 264°
2026-04-26 14:56 43.35956 84.51049 42152 ft 477 kts 264°
2026-04-26 14:56 43.35109 84.42008 42154 ft 477 kts 264°
2026-04-26 14:57 43.34973 84.32935 42154 ft 475 kts 275°
2026-04-26 14:57 43.35679 84.23904 42141 ft 476 kts 277°
2026-04-26 14:58 43.36505 84.14933 42147 ft 476 kts 278°
2026-04-26 14:58 43.37336 84.05896 42133 ft 476 kts 277°
2026-04-26 14:59 43.38143 83.96863 42132 ft 476 kts 277°
2026-04-26 14:59 43.38934 83.87826 42135 ft 476 kts 277°
2026-04-26 15:00 43.39717 83.78781 42135 ft 476 kts 277°
2026-04-26 15:00 43.40492 83.69749 42142 ft 476 kts 277°
2026-04-26 15:01 43.41262 83.60695 42142 ft 476 kts 277°
2026-04-26 15:01 43.42024 83.51654 42116 ft 476 kts 277°
2026-04-26 15:02 43.42779 83.42606 42110 ft 476 kts 277°
2026-04-26 15:02 43.43483 83.33545 42104 ft 476 kts 275°
2026-04-26 15:03 43.43811 83.24461 42100 ft 476 kts 273°
2026-04-26 15:03 43.44047 83.15361 42101 ft 476 kts 273°
2026-04-26 15:04 43.44328 83.06265 42100 ft 476 kts 274°
2026-04-26 15:04 43.44639 82.97174 42100 ft 476 kts 274°
2026-04-26 15:05 43.44953 82.88083 42096 ft 476 kts 274°
2026-04-26 15:05 43.45258 82.78995 42093 ft 476 kts 274°
2026-04-26 15:06 43.45554 82.69904 42094 ft 476 kts 274°
2026-04-26 15:06 43.45842 82.60806 42093 ft 476 kts 274°
2026-04-26 15:07 43.46250 82.47508 42090 ft 476 kts 273°
2026-04-26 15:07 43.46521 82.38409 42082 ft 476 kts 273°
2026-04-26 15:08 43.46783 82.29316 42080 ft 475 kts 273°
2026-04-26 15:08 43.47040 82.20218 42084 ft 475 kts 273°
2026-04-26 15:09 43.47288 82.11134 42081 ft 476 kts 273°
2026-04-26 15:09 43.47530 82.02022 42083 ft 476 kts 273°
2026-04-26 15:10 43.47725 81.94457 42084 ft 475 kts 273°
2026-04-26 15:10 43.47991 81.83832 42080 ft 475 kts 273°
2026-04-26 15:11 43.48210 81.74750 42079 ft 475 kts 273°
2026-04-26 15:11 43.48422 81.65726 42071 ft 474 kts 273°
2026-04-26 15:12 43.48615 81.56599 42076 ft 474 kts 273°
2026-04-26 15:12 43.48766 81.49061 42070 ft 474 kts 273°
2026-04-26 15:13 43.48970 81.38525 42078 ft 474 kts 273°
2026-04-26 15:13 43.49112 81.30926 42070 ft 474 kts 272°
2026-04-26 15:14 43.49276 81.21853 42067 ft 474 kts 272°
2026-04-26 15:14 43.49433 81.12788 42074 ft 473 kts 272°
2026-04-26 15:15 43.49583 81.03729 42067 ft 473 kts 272°
2026-04-26 15:15 43.49724 80.94741 42061 ft 472 kts 272°
2026-04-26 15:16 43.49860 80.85704 42064 ft 472 kts 272°
2026-04-26 15:16 43.49988 80.76661 42062 ft 472 kts 272°
2026-04-26 15:17 43.50117 80.69090 42065 ft 472 kts 274°
2026-04-26 15:17 43.50536 80.58607 42053 ft 471 kts 275°
2026-04-26 15:18 43.50927 80.49592 42053 ft 471 kts 274°
2026-04-26 15:18 43.51279 80.40579 42053 ft 471 kts 274°
2026-04-26 15:19 43.51607 80.31580 42058 ft 470 kts 274°
2026-04-26 15:19 43.51923 80.22584 41957 ft 470 kts 274°
2026-04-26 15:20 43.52078 80.18090 41714 ft 469 kts 274°
2026-04-26 15:20 43.52232 80.13601 41468 ft 469 kts 274°
2026-04-26 15:20 43.52384 80.09127 41222 ft 468 kts 274°
2026-04-26 15:20 43.52534 80.04653 40975 ft 468 kts 274°
2026-04-26 15:21 43.52683 80.00164 40723 ft 467 kts 274°
2026-04-26 15:21 43.52830 79.95693 40480 ft 466 kts 274°
2026-04-26 15:21 43.52975 79.91245 40231 ft 463 kts 274°
2026-04-26 15:21 43.53115 79.86849 39986 ft 456 kts 274°
2026-04-26 15:22 43.53252 79.82510 39743 ft 452 kts 274°
2026-04-26 15:22 43.53389 79.78199 39503 ft 450 kts 274°
2026-04-26 15:22 43.53524 79.73892 39247 ft 449 kts 274°
2026-04-26 15:22 43.53655 79.69591 38998 ft 449 kts 274°
2026-04-26 15:23 43.53785 79.65305 38749 ft 448 kts 274°
2026-04-26 15:23 43.53912 79.61020 38494 ft 447 kts 273°
2026-04-26 15:23 43.54037 79.56741 38252 ft 447 kts 273°
2026-04-26 15:23 43.54162 79.52445 37999 ft 448 kts 273°
2026-04-26 15:24 43.54285 79.48155 37751 ft 448 kts 273°
2026-04-26 15:24 43.54407 79.43856 37496 ft 449 kts 273°
2026-04-26 15:24 43.54527 79.39559 37245 ft 449 kts 273°
2026-04-26 15:24 43.54645 79.35280 36997 ft 449 kts 273°
2026-04-26 15:25 43.54761 79.31036 36750 ft 450 kts 273°
2026-04-26 15:25 43.54839 79.28130 36580 ft 450 kts 273°
2026-04-26 15:25 43.54994 79.22414 36245 ft 450 kts 273°
2026-04-26 15:25 43.55108 79.18093 35991 ft 452 kts 273°
2026-04-26 15:26 43.55216 79.13787 35418 ft 450 kts 272°
2026-04-26 15:26 43.55324 79.09471 34678 ft 451 kts 272°
2026-04-26 15:26 43.55432 79.05135 33851 ft 454 kts 272°
2026-04-26 15:26 43.55538 79.00775 33001 ft 457 kts 272°
2026-04-26 15:27 43.55644 78.96391 32130 ft 460 kts 272°
2026-04-26 15:27 43.55749 78.91972 31220 ft 463 kts 272°
2026-04-26 15:27 43.55853 78.87522 30286 ft 466 kts 272°
2026-04-26 15:27 43.55956 78.83048 29313 ft 469 kts 272°
2026-04-26 15:28 43.56058 78.78548 28485 ft 468 kts 272°
2026-04-26 15:28 43.56157 78.74088 27813 ft 464 kts 272°
2026-04-26 15:28 43.56254 78.69657 27133 ft 460 kts 272°
2026-04-26 15:28 43.56348 78.65266 26441 ft 457 kts 272°
2026-04-26 15:29 43.56441 78.60902 25751 ft 453 kts 272°
2026-04-26 15:29 43.56530 78.56585 25068 ft 450 kts 271°
2026-04-26 15:29 43.56702 78.48029 23721 ft 443 kts 271°
2026-04-26 15:30 43.56859 78.39917 22428 ft 435 kts 271°
2026-04-26 15:30 43.56938 78.35766 21756 ft 431 kts 271°
2026-04-26 15:30 43.57014 78.31659 21099 ft 426 kts 271°
2026-04-26 15:31 43.57088 78.27588 20427 ft 422 kts 271°
2026-04-26 15:31 43.57230 78.19574 19101 ft 414 kts 271°
2026-04-26 15:31 43.57298 78.15616 18429 ft 410 kts 271°
2026-04-26 15:32 43.57407 78.09130 17313 ft 403 kts 270°
2026-04-26 15:32 43.57490 78.03983 16444 ft 401 kts 270°
2026-04-26 15:32 43.57548 78.00153 15799 ft 397 kts 271°
2026-04-26 15:33 43.57607 77.96371 15132 ft 392 kts 271°
2026-04-26 15:33 43.57665 77.92640 14484 ft 387 kts 271°
2026-04-26 15:33 43.57720 77.88953 13842 ft 382 kts 271°
2026-04-26 15:33 43.57774 77.85314 13219 ft 378 kts 271°
2026-04-26 15:34 43.57827 77.81708 12576 ft 374 kts 271°
2026-04-26 15:34 43.57879 77.78151 11952 ft 369 kts 271°
2026-04-26 15:34 43.57927 77.74632 11344 ft 365 kts 271°
2026-04-26 15:34 43.57973 77.71151 10894 ft 357 kts 271°
2026-04-26 15:35 43.58015 77.67826 10776 ft 339 kts 271°
2026-04-26 15:35 43.58056 77.64635 10666 ft 323 kts 271°
2026-04-26 15:35 43.58099 77.61612 10551 ft 309 kts 271°
2026-04-26 15:35 43.58141 77.58723 10445 ft 290 kts 271°
2026-04-26 15:36 43.58171 77.56055 10334 ft 271 kts 271°
2026-04-26 15:36 43.58193 77.53495 10212 ft 265 kts 270°
2026-04-26 15:36 43.57985 77.50968 10083 ft 268 kts 254°
2026-04-26 15:36 43.57182 77.48581 9925 ft 283 kts 239°
2026-04-26 15:37 43.56115 77.46299 9461 ft 285 kts 237°
2026-04-26 15:37 43.55000 77.44010 8824 ft 291 kts 236°
2026-04-26 15:37 43.53868 77.41681 8272 ft 294 kts 236°
2026-04-26 15:37 43.52736 77.39337 7827 ft 292 kts 236°
2026-04-26 15:38 43.51639 77.37056 7482 ft 287 kts 236°
2026-04-26 15:38 43.50540 77.34769 7093 ft 284 kts 236°
2026-04-26 15:38 43.49461 77.32537 6838 ft 275 kts 235°
2026-04-26 15:38 43.48352 77.30463 6690 ft 263 kts 233°
2026-04-26 15:39 43.47371 77.28587 6558 ft 253 kts 235°
2026-04-26 15:39 43.46406 77.26629 6424 ft 242 kts 236°
2026-04-26 15:39 43.45490 77.24755 6270 ft 228 kts 236°
2026-04-26 15:39 43.44920 77.23592 6170 ft 215 kts 236°
2026-04-26 15:40 43.43853 77.21425 5870 ft 197 kts 235°
2026-04-26 15:40 43.43088 77.19880 5295 ft 196 kts 235°
2026-04-26 15:40 43.42304 77.18295 4413 ft 205 kts 235°
2026-04-26 15:40 43.41483 77.16635 3553 ft 211 kts 235°
2026-04-26 15:41 43.40695 77.15040 3337 ft 195 kts 235°
2026-04-26 15:41 43.39949 77.13522 3246 ft 186 kts 236°
2026-04-26 15:41 43.39262 77.12134 3156 ft 164 kts 235°
2026-04-26 15:41 43.38652 77.10897 3061 ft 151 kts 235°
2026-04-26 15:42 43.38081 77.09741 2887 ft 143 kts 235°
2026-04-26 15:42 43.37530 77.08622 2707 ft 141 kts 235°
2026-04-26 15:42 43.36984 77.07508 2476 ft 140 kts 236°
2026-04-26 15:42 43.36443 77.06414 2325 ft 138 kts 237°
2026-04-26 15:43 43.35906 77.05335 2259 ft 136 kts 236°
2026-04-26 15:43 43.35422 77.04339 2235 ft 109 kts 235°
2026-04-26 15:43 43.34857 77.03213 2232 ft 45 kts 237°
2026-04-26 15:44 43.34782 77.02827 2234 ft 34 kts 266°
2026-04-26 15:44 43.34783 77.02345 2235 ft 21 kts 275°
2026-04-26 15:44 43.34787 77.02257 2231 ft 0 kts 272°
2026-04-26 15:46 43.34787 77.02256 2235 ft 1 kts 272°
2026-04-26 15:46 43.34790 77.02171 2233 ft 13 kts 274°
2026-04-26 15:46 43.34794 77.02088 2235 ft 14 kts 274°
2026-04-26 15:47 43.34800 77.01905 2230 ft 15 kts 272°
2026-04-26 15:47 43.34815 77.01625 2230 ft 14 kts 274°
2026-04-26 15:47 43.34856 77.01515 2233 ft 14 kts 330°
2026-04-26 15:48 43.34946 77.01458 2235 ft 14 kts 335°
2026-04-26 15:48 43.35017 77.01414 2227 ft 8 kts 336°
2026-04-26 15:48 43.35024 77.01410 2235 ft 3 kts 336°
2026-04-26 15:48 43.35059 77.01383 2230 ft 4 kts 307°
2026-04-26 15:49 43.35058 77.01347 2235 ft 4 kts 260°
2026-04-26 15:49 43.35046 77.01298 2235 ft 6 kts 246°
2026-04-26 15:49 43.35039 77.01274 2235 ft 0 kts 246°
2026-04-26 15:50 43.35035 77.01262 2235 ft 0 kts 246°
2026-04-26 15:50 43.35035 77.01261 2235 ft 0 kts 246°